This is the latest recevied weather packets stored in our database for station/object KXNA. If no packets are shown the sender has not sent any weather packets the latest 1 day(s).
| Time | Temp. | Humidity | Pressure | Rain* | Wind** | Luminosity | Snow |
|---|---|---|---|---|---|---|---|
| 1778100221 | 15° C | 54% | 1016.6 hPa | - | - | - | - |
| 1778099622 | 15° C | 54% | 1016.6 hPa | - | - | - | - |
| 1778096021 | 13.89° C | 58% | 1016.9 hPa | - | - | - | - |
| 1778095421 | 13.89° C | 58% | 1016.9 hPa | - | - | - | - |
| 1778094822 | 13.89° C | 58% | 1016.9 hPa | - | - | - | - |
| 1778093024 | 12.78° C | 58% | 1018.3 hPa | - | - | - | - |
| 1778092426 | 12.78° C | 58% | 1018.3 hPa | - | - | - | - |
| 1778091825 | 12.78° C | 58% | 1018.3 hPa | - | - | - | - |
| 1778088225 | 11.67° C | 58% | 1018.6 hPa | - | - | - | - |
| 1778085823 | 11.67° C | 66% | 1016.9 hPa | - | - | - | - |
| 1778084625 | 11.67° C | 66% | 1017.3 hPa | - | - | - | - |
| 1778083547 | 11.67° C | 66% | 1017.3 hPa | - | - | - | - |
| 1778078624 | 10° C | 76% | 1017.3 hPa | - | - | - | - |
| 1778076221 | 10° C | 76% | 1017.3 hPa | - | - | - | - |
| 1778074418 | 7.78° C | 87% | 1016.9 hPa | - | - | - | - |
| 1778073820 | 7.78° C | 87% | 1016.9 hPa | - | - | - | - |
| 1778073223 | 7.78° C | 87% | 1016.9 hPa | - | - | - | - |
| 1778072624 | 7.78° C | 87% | 1016.9 hPa | - | - | - | - |
| 1778070223 | 7.78° C | 81% | 1016.6 hPa | - | - | - | - |
| 1778069021 | 7.78° C | 81% | 1015.9 hPa | - | - | - | - |
| 1778067220 | 7.78° C | 81% | 1015.6 hPa | - | - | - | - |
| 1778066625 | 7.78° C | 81% | 1015.6 hPa | - | - | - | - |
| 1778066024 | 7.78° C | 81% | 1015.6 hPa | - | - | - | - |
| 1778065421 | 7.78° C | 81% | 1015.6 hPa | - | - | - | - |
| 1778064821 | 7.78° C | 81% | 1015.9 hPa | - | - | - | - |
* Rain since midnight (hover to see other rain measurements)
** Current wind speed in m/s (hover to see current wind gust speed)